{"data":{"norad_id":48138,"epoch":"2026-09-20T04:47:44.593152Z","epoch_age_seconds":55073,"freshness":"FRESH","line1":"1 48138U 21027AY  26263.19982168  .00001850  00000+0  71377-4 0  9991","line2":"2 48138  53.1614 342.5463 0001154  80.8101 279.3031 15.31697286302280","mean_motion":15.31697286,"eccentricity":0.0001154,"inclination_deg":53.1614,"raan_deg":342.5463,"arg_perigee_deg":80.8101,"mean_anomaly_deg":279.3031,"bstar":7.1377e-5,"rev_number":30228,"period_min":94.013354542172,"perigee_km":469.9577241915,"apogee_km":471.53844686924,"semimajor_km":6848.8850855304,"source":"CELESTRAK","updated_at":"2026-09-20T09:00:38.924457Z"}}